Weather reports worldwide

Advertisment
Valencia/Manises, Spain (8284): temperature & dewpoint: 30.05.2020 09:00:00 - 05.06.2020 09:00:00 (CEST)Valencia/Manises, Spain (8284): wind speed: 30.05.2020 09:00:00 - 05.06.2020 09:00:00 (CEST)Valencia/Manises, Spain (8284): wind direction: 30.05.2020 09:00:00 - 05.06.2020 09:00:00 (CEST)Valencia/Manises, Spain (8284): reduced air pressure: 30.05.2020 09:00:00 - 05.06.2020 09:00:00 (CEST)Valencia/Manises, Spain (8284): visibility: 30.05.2020 09:00:00 - 05.06.2020 09:00:00 (CEST)
Date & Time tt [°C] td [°C] ff [km/h] ff [kn] dd ppp [hPa] vv [km]
05.06.2020 09:00:00 - - - - - - -
05.06.2020 08:00:00 16,4 10,6 2 1 SW 1010,8 50
05.06.2020 07:00:00 13,4 9,6 8 4 W 1010,4 -
05.06.2020 06:00:00 13,1 9,7 5 3 WSW 1010,0 -
05.06.2020 05:00:00 13,5 10,2 5 3 NW 1009,6 14
05.06.2020 04:00:00 14,8 10,1 2 1 WNW 1009,5 -
05.06.2020 03:00:00 14,8 10,3 5 3 S 1009,3 -
05.06.2020 02:00:00 14,7 12,0 5 3 W 1009,5 14
05.06.2020 01:00:00 15,3 13,0 11 6 W 1009,5 -
05.06.2020 00:00:00 17,0 13,3 13 7 WNW 1009,0 -
04.06.2020 23:00:00 17,9 14,0 15 8 WSW 1008,1 14
04.06.2020 22:00:00 19,1 14,5 5 3 WNW 1006,9 -
04.06.2020 21:00:00 20,9 14,0 11 6 W 1006,0 -
04.06.2020 20:00:00 21,7 13,4 21 11 W 1004,9 45
04.06.2020 19:00:00 21,2 12,7 24 13 W 1004,3 -
04.06.2020 18:00:00 20,7 13,9 24 13 WSW 1004,7 -
04.06.2020 17:00:00 19,2 15,0 16 9 SW 1004,6 45
04.06.2020 16:00:00 18,4 14,9 18 10 WSW 1005,6 -
04.06.2020 15:00:00 18,3 15,1 21 11 SW 1005,8 -
04.06.2020 14:00:00 18,8 13,5 22 12 W 1005,8 35
04.06.2020 13:00:00 21,3 10,7 37 20 WNW 1005,4 -
04.06.2020 12:00:00 23,5 10,5 29 16 NNW 1003,8 -
04.06.2020 11:00:00 27,0 13,5 29 16 W 1002,5 45
04.06.2020 10:00:00 25,8 13,2 22 12 WSW 1002,7 -
04.06.2020 09:00:00 24,3 12,9 15 8 WSW 1002,8 -
04.06.2020 08:00:00 21,4 16,7 0 0 N 1002,9 45
04.06.2020 07:00:00 19,6 16,6 5 3 W 1003,0 -
04.06.2020 06:00:00 19,0 16,4 5 3 WNW 1002,8 -
04.06.2020 05:00:00 20,1 16,7 0 0 N 1003,4 40
04.06.2020 04:00:00 20,6 17,0 9 5 SSW 1004,0 -
04.06.2020 03:00:00 21,4 17,8 11 6 S 1004,7 -
04.06.2020 02:00:00 22,3 16,3 11 6 SE 1005,4 40
04.06.2020 01:00:00 23,3 16,1 15 8 E 1005,4 -
04.06.2020 00:00:00 23,6 15,9 21 11 ENE 1005,1 -
03.06.2020 23:00:00 23,5 18,8 34 18 ENE 1004,5 40
03.06.2020 22:00:00 25,7 18,5 15 8 ENE 1002,8 -
03.06.2020 21:00:00 27,8 18,2 18 10 ENE 1002,0 -
03.06.2020 20:00:00 30,4 15,6 15 8 ESE 1001,9 40
03.06.2020 19:00:00 30,1 16,9 13 7 ESE 1001,9 -
03.06.2020 18:00:00 29,5 16,0 16 9 E 1002,8 -
03.06.2020 17:00:00 29,0 14,7 16 9 ESE 1004,0 40
03.06.2020 16:00:00 28,0 15,6 16 9 SE 1005,2 -
03.06.2020 15:00:00 28,3 17,5 18 10 SE 1006,1 -
03.06.2020 14:00:00 27,9 18,3 15 8 SE 1007,1 30
03.06.2020 13:00:00 28,1 17,9 13 7 SE 1008,1 -
03.06.2020 12:00:00 27,5 15,7 5 3 S 1008,8 -
03.06.2020 11:00:00 25,7 14,8 5 3 S 1009,7 30
03.06.2020 10:00:00 23,2 16,0 4 2 S 1010,5 -
03.06.2020 09:00:00 20,3 15,3 4 2 NW 1010,8 -
03.06.2020 08:00:00 17,9 14,9 2 1 W 1011,2 30
03.06.2020 07:00:00 16,3 14,1 5 3 NW 1011,2 -
03.06.2020 06:00:00 16,5 15,0 5 3 NW 1011,3 -
03.06.2020 05:00:00 16,8 14,8 5 3 WNW 1011,4 30
03.06.2020 04:00:00 17,0 14,8 9 5 W 1012,0 -
03.06.2020 03:00:00 18,2 16,7 8 4 WNW 1012,6 -
03.06.2020 02:00:00 19,3 17,3 4 2 NNW 1013,1 30
03.06.2020 01:00:00 19,7 17,2 9 5 NNW 1013,5 -
03.06.2020 00:00:00 21,0 18,0 2 1 NNW 1013,9 -
02.06.2020 23:00:00 21,3 18,1 9 5 ENE 1013,9 30
02.06.2020 22:00:00 21,6 18,0 11 6 E 1013,7 -
02.06.2020 21:00:00 22,7 17,6 15 8 E 1013,4 -
02.06.2020 20:00:00 23,3 18,1 21 11 NE 1013,3 30
02.06.2020 19:00:00 25,1 16,9 21 11 E 1012,7 -
02.06.2020 18:00:00 25,6 14,7 16 9 E 1013,2 -
02.06.2020 17:00:00 25,9 15,9 18 10 E 1013,3 30
02.06.2020 16:00:00 25,9 17,9 16 9 E 1013,8 -
02.06.2020 15:00:00 26,8 14,2 15 8 ESE 1014,0 -
02.06.2020 14:00:00 26,1 15,5 18 10 E 1014,5 30
02.06.2020 13:00:00 26,7 16,0 15 8 SE 1014,9 -
02.06.2020 12:00:00 27,4 13,8 9 5 SE 1015,1 -
02.06.2020 11:00:00 25,0 11,8 4 2 N 1015,5 35
02.06.2020 10:00:00 23,0 15,1 4 2 N 1016,0 -
02.06.2020 09:00:00 20,4 11,6 8 4 NW 1016,1 -
02.06.2020 08:00:00 17,9 10,5 9 5 WNW 1015,8 40
02.06.2020 07:00:00 16,4 12,6 8 4 W 1016,0 -
02.06.2020 06:00:00 16,3 13,4 4 2 W 1015,8 -
02.06.2020 05:00:00 17,4 11,9 9 5 NW 1015,7 20
02.06.2020 04:00:00 18,0 13,5 8 4 NW 1016,0 -
02.06.2020 03:00:00 19,1 15,2 9 5 NNW 1016,3 -
02.06.2020 02:00:00 20,6 16,4 4 2 ENE 1016,7 20
02.06.2020 01:00:00 21,3 17,1 9 5 E 1016,9 -
02.06.2020 00:00:00 21,7 16,4 9 5 ENE 1016,8 -
01.06.2020 23:00:00 21,7 15,5 8 4 ENE 1016,5 20
01.06.2020 22:00:00 22,0 16,0 13 7 ENE 1015,7 -
01.06.2020 21:00:00 22,7 15,4 15 8 ENE 1015,2 -
01.06.2020 20:00:00 23,5 15,2 16 9 ENE 1015,0 35
01.06.2020 19:00:00 24,8 13,4 18 10 ENE 1014,9 -
01.06.2020 18:00:00 25,7 10,4 22 12 E 1014,9 -
01.06.2020 17:00:00 26,6 14,9 22 12 E 1014,9 35
01.06.2020 16:00:00 26,5 17,1 22 12 ESE 1014,9 -
01.06.2020 15:00:00 26,7 17,1 21 11 SE 1014,9 -
01.06.2020 14:00:00 26,9 17,0 16 9 SE 1015,0 30
01.06.2020 13:00:00 26,4 16,0 18 10 ESE 1015,0 -
01.06.2020 12:00:00 26,5 14,7 5 3 SSE 1015,2 -
01.06.2020 11:00:00 24,5 15,6 4 2 S 1015,4 30
01.06.2020 10:00:00 21,4 14,3 4 2 SSE 1015,3 -
01.06.2020 09:00:00 19,7 13,5 0 0 N 1015,1 -
01.06.2020 08:00:00 18,6 14,3 4 2 WSW 1014,7 50
01.06.2020 07:00:00 18,2 14,3 8 4 W 1014,5 -
01.06.2020 06:00:00 18,3 14,8 13 7 NW 1014,3 -
01.06.2020 05:00:00 18,9 15,9 9 5 NW 1014,3 15
01.06.2020 04:00:00 19,7 16,3 8 4 WNW 1014,8 -
01.06.2020 03:00:00 20,1 16,3 8 4 WSW 1015,4 -
01.06.2020 02:00:00 20,8 15,7 4 2 W 1015,4 15
01.06.2020 01:00:00 21,0 15,5 5 3 N 1015,9 -
01.06.2020 00:00:00 21,1 16,1 8 4 ENE 1015,8 -
31.05.2020 23:00:00 21,3 16,5 13 7 NE 1015,4 15
31.05.2020 22:00:00 21,3 16,7 11 6 ENE 1014,5 -
31.05.2020 21:00:00 21,7 16,5 15 8 ENE 1013,4 -
31.05.2020 20:00:00 23,0 16,3 16 9 E 1012,9 40
31.05.2020 19:00:00 23,9 16,0 21 11 E 1012,4 -
31.05.2020 18:00:00 24,9 15,0 26 14 E 1012,2 -
31.05.2020 17:00:00 26,3 14,2 24 13 E 1011,6 50
31.05.2020 16:00:00 26,2 13,6 24 13 ESE 1012,0 -
31.05.2020 15:00:00 26,2 12,3 21 11 ESE 1012,4 -
31.05.2020 14:00:00 26,7 12,1 18 10 ESE 1012,9 50
31.05.2020 13:00:00 26,2 15,4 15 8 ESE 1013,2 -
31.05.2020 12:00:00 26,0 13,2 9 5 SE 1013,5 -
31.05.2020 11:00:00 24,7 12,3 5 3 SSE 1013,8 40
31.05.2020 10:00:00 22,6 12,0 4 2 SW 1014,1 -
31.05.2020 09:00:00 19,5 8,2 13 7 NW 1014,3 -
31.05.2020 08:00:00 17,3 8,4 11 6 NW 1014,3 50
31.05.2020 07:00:00 14,7 9,8 8 4 W 1014,2 -
31.05.2020 06:00:00 15,3 10,1 8 4 WNW 1013,9 -
31.05.2020 05:00:00 16,1 10,4 13 7 NW 1014,0 14
31.05.2020 04:00:00 16,9 11,4 15 8 NW 1014,2 -
31.05.2020 03:00:00 17,6 12,7 13 7 NW 1014,8 -
31.05.2020 02:00:00 18,4 13,5 13 7 NW 1014,9 14
31.05.2020 01:00:00 20,1 15,1 9 5 NNE 1015,2 -
31.05.2020 00:00:00 20,4 15,4 11 6 NNE 1015,2 -
30.05.2020 23:00:00 20,8 15,3 11 6 NE 1014,8 14
30.05.2020 22:00:00 21,1 15,2 13 7 ENE 1014,2 -
30.05.2020 21:00:00 21,8 14,6 16 9 ENE 1014,0 -
30.05.2020 20:00:00 23,3 13,0 16 9 E 1013,6 50
30.05.2020 19:00:00 24,6 9,8 18 10 E 1013,7 -
30.05.2020 18:00:00 25,2 9,0 18 10 SE 1013,7 -
30.05.2020 17:00:00 25,4 10,8 24 13 ESE 1014,2 50
30.05.2020 16:00:00 26,1 11,9 22 12 ESE 1014,5 -
30.05.2020 15:00:00 26,7 4,3 21 11 SE 1014,8 -
30.05.2020 14:00:00 26,6 10,5 18 10 SE 1015,1 50
30.05.2020 13:00:00 26,6 13,8 15 8 ESE 1015,7 -
30.05.2020 12:00:00 25,9 12,2 8 4 SSW 1016,0 -
30.05.2020 11:00:00 24,7 12,8 4 2 S 1016,2 40
30.05.2020 10:00:00 22,5 15,1 2 1 NW 1016,4 -
30.05.2020 09:00:00 20,0 11,5 8 4 NNW 1016,7 -

tt = temperature
td = dewpoint
ff = wind speed
dd = wind direction
ppp = reduced air pressure
vv = visibility

Next stations